Time,TemperatureF,DewpointF,PressureIn,WindDirection,WindDirectionDegrees,WindSpeedMPH,WindSpeedGustMPH,Humidity,HourlyPrecipIn,Conditions,Clouds,dailyrainin,SolarRadiationWatts/m^2,SoftwareType,DateUTC
2013-04-04 00:02:00,33.0,24.0,-100.00,West,260,4.0,6.0,70,-99.99,,,-99.99,0.000000,,2013-04-04 06:02:00,
2013-04-04 00:12:00,33.0,24.0,-100.00,West,260,4.0,6.0,70,-99.99,,,-99.99,0.000000,,2013-04-04 06:12:00,
2013-04-04 00:42:00,33.0,24.0,-100.00,West,274,5.0,7.0,69,-99.99,,,-99.99,0.000000,,2013-04-04 06:42:00,
2013-04-04 00:52:00,33.0,24.0,-100.00,West,274,5.0,7.0,69,-99.99,,,-99.99,0.000000,,2013-04-04 06:52:00,
2013-04-04 01:02:00,33.0,24.0,-100.00,West,274,5.0,7.0,69,-99.99,,,-99.99,0.000000,,2013-04-04 07:02:00,
2013-04-04 01:12:00,33.0,24.0,-100.00,West,274,5.0,7.0,69,-99.99,,,-99.99,0.000000,,2013-04-04 07:12:00,
2013-04-04 01:43:00,33.0,24.0,-100.00,West,262,4.0,8.0,68,-99.99,,,-99.99,0.000000,,2013-04-04 07:43:00,
2013-04-04 01:52:00,33.0,24.0,-100.00,West,262,4.0,8.0,68,-99.99,,,-99.99,0.000000,,2013-04-04 07:52:00,
2013-04-04 02:02:00,33.0,24.0,-100.00,West,262,4.0,8.0,68,-99.99,,,-99.99,0.000000,,2013-04-04 08:02:00,
2013-04-04 02:12:00,33.0,24.0,-100.00,West,262,4.0,8.0,68,-99.99,,,-99.99,0.000000,,2013-04-04 08:12:00,
2013-04-04 02:43:00,32.0,23.0,-100.00,West,267,5.0,8.0,68,-99.99,,,-99.99,0.000000,,2013-04-04 08:43:00,
2013-04-04 02:52:00,32.0,23.0,-100.00,West,267,5.0,8.0,68,-99.99,,,-99.99,0.000000,,2013-04-04 08:52:00,
2013-04-04 03:02:00,32.0,23.0,-100.00,West,267,5.0,8.0,68,-99.99,,,-99.99,0.000000,,2013-04-04 09:02:00,
2013-04-04 03:12:00,32.0,23.0,-100.00,West,267,5.0,8.0,68,-99.99,,,-99.99,0.000000,,2013-04-04 09:12:00,
2013-04-04 03:43:00,34.0,23.0,-100.00,WSW,256,0.0,7.0,65,-99.99,,,-99.99,0.000000,,2013-04-04 09:43:00,
2013-04-04 03:53:00,34.0,23.0,-100.00,WSW,256,0.0,7.0,65,-99.99,,,-99.99,0.000000,,2013-04-04 09:53:00,
2013-04-04 04:03:00,34.0,23.0,-100.00,WSW,256,0.0,7.0,65,-99.99,,,-99.99,0.000000,,2013-04-04 10:03:00,
2013-04-04 04:12:00,34.0,23.0,-100.00,WSW,256,0.0,7.0,65,-99.99,,,-99.99,0.000000,,2013-04-04 10:12:00,
2013-04-04 04:43:00,35.0,24.0,-100.00,WSW,258,0.0,0.0,64,-99.99,,,-99.99,0.000000,,2013-04-04 10:43:00,
2013-04-04 04:53:00,35.0,24.0,-100.00,WSW,258,0.0,0.0,64,-99.99,,,-99.99,0.000000,,2013-04-04 10:53:00,
2013-04-04 05:02:00,35.0,24.0,-100.00,WSW,258,0.0,0.0,64,-99.99,,,-99.99,0.000000,,2013-04-04 11:02:00,
2013-04-04 05:12:00,35.0,24.0,-100.00,WSW,258,0.0,0.0,64,-99.99,,,-99.99,0.000000,,2013-04-04 11:12:00,
2013-04-04 05:33:00,37.0,26.0,-100.00,West,263,0.0,0.0,63,-99.99,,,-99.99,0.000000,,2013-04-04 11:33:00,
2013-04-04 05:43:00,37.0,26.0,-100.00,West,263,0.0,0.0,63,-99.99,,,-99.99,0.000000,,2013-04-04 11:43:00,
2013-04-04 05:53:00,37.0,26.0,-100.00,West,263,0.0,0.0,63,-99.99,,,-99.99,0.000000,,2013-04-04 11:53:00,
2013-04-04 06:02:00,37.0,26.0,-100.00,West,263,0.0,0.0,63,-99.99,,,-99.99,0.000000,,2013-04-04 12:02:00,
2013-04-04 06:12:00,37.0,26.0,-100.00,West,263,0.0,0.0,63,-99.99,,,-99.99,0.000000,,2013-04-04 12:12:00,
2013-04-04 06:43:00,36.0,25.0,-100.00,West,264,4.0,7.0,63,-99.99,,,-99.99,0.000000,,2013-04-04 12:43:00,
2013-04-04 06:52:00,36.0,25.0,-100.00,West,264,4.0,7.0,63,-99.99,,,-99.99,0.000000,,2013-04-04 12:52:00,
2013-04-04 07:02:00,36.0,25.0,-100.00,West,264,4.0,7.0,63,-99.99,,,-99.99,0.000000,,2013-04-04 13:02:00,
2013-04-04 07:12:00,36.0,25.0,-100.00,West,264,4.0,7.0,63,-99.99,,,-99.99,0.000000,,2013-04-04 13:12:00,
2013-04-04 07:43:00,35.0,25.0,-100.00,West,268,3.0,7.0,66,-99.99,,,-99.99,6.000000,,2013-04-04 13:43:00,
2013-04-04 07:52:00,35.0,25.0,-100.00,West,268,3.0,7.0,66,-99.99,,,-99.99,6.000000,,2013-04-04 13:52:00,
2013-04-04 08:02:00,35.0,25.0,-100.00,West,268,3.0,7.0,66,-99.99,,,-99.99,6.000000,,2013-04-04 14:02:00,
2013-04-04 08:12:00,35.0,25.0,-100.00,West,268,3.0,7.0,66,-99.99,,,-99.99,6.000000,,2013-04-04 14:12:00,
2013-04-04 08:43:00,43.0,27.0,-100.00,WSW,254,3.0,7.0,53,-99.99,,,-99.99,142.000000,,2013-04-04 14:43:00,
2013-04-04 08:52:00,43.0,27.0,-100.00,WSW,254,3.0,7.0,53,-99.99,,,-99.99,142.000000,,2013-04-04 14:52:00,
2013-04-04 09:02:00,43.0,27.0,-100.00,WSW,254,3.0,7.0,53,-99.99,,,-99.99,142.000000,,2013-04-04 15:02:00,
2013-04-04 09:12:00,43.0,27.0,-100.00,WSW,254,3.0,7.0,53,-99.99,,,-99.99,142.000000,,2013-04-04 15:12:00,
2013-04-04 09:43:00,47.0,26.0,-100.00,East,80,6.0,9.0,44,-99.99,,,-99.99,378.000000,,2013-04-04 15:43:00,
2013-04-04 09:53:00,47.0,26.0,-100.00,East,80,6.0,9.0,44,-99.99,,,-99.99,378.000000,,2013-04-04 15:53:00,
2013-04-04 10:03:00,47.0,26.0,-100.00,East,80,6.0,9.0,44,-99.99,,,-99.99,378.000000,,2013-04-04 16:03:00,
2013-04-04 10:12:00,47.0,26.0,-100.00,East,80,6.0,9.0,44,-99.99,,,-99.99,378.000000,,2013-04-04 16:12:00,
2013-04-04 10:43:00,48.0,28.0,-100.00,East,97,0.0,11.0,45,-99.99,,,-99.99,568.000000,,2013-04-04 16:43:00,
2013-04-04 10:53:00,48.0,28.0,-100.00,East,97,0.0,11.0,45,-99.99,,,-99.99,568.000000,,2013-04-04 16:53:00,
2013-04-04 11:02:00,48.0,28.0,-100.00,East,97,0.0,11.0,45,-99.99,,,-99.99,568.000000,,2013-04-04 17:02:00,
2013-04-04 11:12:00,48.0,28.0,-100.00,East,97,0.0,11.0,45,-99.99,,,-99.99,568.000000,,2013-04-04 17:12:00,
2013-04-04 11:43:00,60.0,25.0,-100.00,SE,129,8.0,14.0,26,-99.99,,,-99.99,774.000000,,2013-04-04 17:43:00,
2013-04-04 11:52:00,60.0,25.0,-100.00,SE,129,8.0,14.0,26,-99.99,,,-99.99,774.000000,,2013-04-04 17:52:00,
2013-04-04 12:43:00,53.0,29.0,-100.00,SE,138,7.0,15.0,40,-99.99,,,-99.99,921.000000,,2013-04-04 18:43:00,
2013-04-04 12:52:00,53.0,29.0,-100.00,SE,138,7.0,15.0,40,-99.99,,,-99.99,921.000000,,2013-04-04 18:52:00,
2013-04-04 13:02:00,53.0,29.0,-100.00,SE,138,7.0,15.0,40,-99.99,,,-99.99,921.000000,,2013-04-04 19:02:00,
2013-04-04 13:12:00,53.0,29.0,-100.00,SE,138,7.0,15.0,40,-99.99,,,-99.99,921.000000,,2013-04-04 19:12:00,
2013-04-04 13:43:00,53.0,29.0,-100.00,ESE,118,6.0,15.0,40,-99.99,,,-99.99,1000.000000,,2013-04-04 19:43:00,
2013-04-04 13:52:00,53.0,29.0,-100.00,ESE,118,6.0,15.0,40,-99.99,,,-99.99,1000.000000,,2013-04-04 19:52:00,
2013-04-04 14:03:00,53.0,29.0,-100.00,ESE,118,6.0,15.0,40,-99.99,,,-99.99,1000.000000,,2013-04-04 20:03:00,
2013-04-04 14:12:00,53.0,29.0,-100.00,ESE,118,6.0,15.0,40,-99.99,,,-99.99,1000.000000,,2013-04-04 20:12:00,
2013-04-04 14:42:00,53.0,29.0,-100.00,ESE,122,8.0,16.0,39,-99.99,,,-99.99,925.000000,,2013-04-04 20:42:00,
2013-04-04 14:53:00,53.0,29.0,-100.00,ESE,122,8.0,16.0,39,-99.99,,,-99.99,925.000000,,2013-04-04 20:53:00,
2013-04-04 15:02:00,53.0,29.0,-100.00,ESE,122,8.0,16.0,39,-99.99,,,-99.99,925.000000,,2013-04-04 21:02:00,
2013-04-04 15:12:00,53.0,29.0,-100.00,ESE,122,8.0,16.0,39,-99.99,,,-99.99,925.000000,,2013-04-04 21:12:00,
2013-04-04 15:43:00,53.0,28.0,-100.00,ESE,115,11.0,19.0,38,-99.99,,,-99.99,933.000000,,2013-04-04 21:43:00,
2013-04-04 15:53:00,53.0,28.0,-100.00,ESE,115,11.0,19.0,38,-99.99,,,-99.99,933.000000,,2013-04-04 21:53:00,
2013-04-04 16:03:00,53.0,28.0,-100.00,ESE,115,11.0,19.0,38,-99.99,,,-99.99,933.000000,,2013-04-04 22:03:00,
2013-04-04 16:12:00,53.0,28.0,-100.00,ESE,115,11.0,19.0,38,-99.99,,,-99.99,933.000000,,2013-04-04 22:12:00,
2013-04-04 16:33:00,57.0,25.0,-100.00,West,261,6.0,19.0,29,-99.99,,,-99.99,763.000000,,2013-04-04 22:33:00,
2013-04-04 16:43:00,57.0,25.0,-100.00,West,261,6.0,19.0,29,-99.99,,,-99.99,763.000000,,2013-04-04 22:43:00,
2013-04-04 16:53:00,57.0,25.0,-100.00,West,261,6.0,19.0,29,-99.99,,,-99.99,763.000000,,2013-04-04 22:53:00,
2013-04-04 17:02:00,57.0,25.0,-100.00,West,261,6.0,19.0,29,-99.99,,,-99.99,763.000000,,2013-04-04 23:02:00,
2013-04-04 17:12:00,57.0,25.0,-100.00,West,261,6.0,19.0,29,-99.99,,,-99.99,763.000000,,2013-04-04 23:12:00,
2013-04-04 17:42:00,57.0,25.0,-100.00,West,280,10.0,20.0,29,-99.99,,,-99.99,406.000000,,2013-04-04 23:42:00,
2013-04-04 17:52:00,57.0,25.0,-100.00,West,280,10.0,20.0,29,-99.99,,,-99.99,406.000000,,2013-04-04 23:52:00,
2013-04-04 18:02:00,57.0,25.0,-100.00,West,280,10.0,20.0,29,-99.99,,,-99.99,406.000000,,2013-04-05 00:02:00,
2013-04-04 18:12:00,57.0,25.0,-100.00,West,280,10.0,20.0,29,-99.99,,,-99.99,406.000000,,2013-04-05 00:12:00,
2013-04-04 18:42:00,53.0,25.0,-100.00,WNW,283,9.0,20.0,34,-99.99,,,-99.99,291.000000,,2013-04-05 00:42:00,
2013-04-04 18:52:00,53.0,25.0,-100.00,WNW,283,9.0,20.0,34,-99.99,,,-99.99,291.000000,,2013-04-05 00:52:00,
2013-04-04 19:02:00,53.0,25.0,-100.00,WNW,283,9.0,20.0,34,-99.99,,,-99.99,291.000000,,2013-04-05 01:02:00,
2013-04-04 19:12:00,53.0,25.0,-100.00,WNW,283,9.0,20.0,34,-99.99,,,-99.99,291.000000,,2013-04-05 01:12:00,
2013-04-04 19:42:00,49.0,28.0,-100.00,South,174,5.0,19.0,44,-99.99,,,-99.99,83.000000,,2013-04-05 01:42:00,
2013-04-04 19:53:00,49.0,28.0,-100.00,South,174,5.0,19.0,44,-99.99,,,-99.99,83.000000,,2013-04-05 01:53:00,
2013-04-04 20:02:00,49.0,28.0,-100.00,South,174,5.0,19.0,44,-99.99,,,-99.99,83.000000,,2013-04-05 02:02:00,
2013-04-04 20:12:00,49.0,28.0,-100.00,South,174,5.0,19.0,44,-99.99,,,-99.99,83.000000,,2013-04-05 02:12:00,
2013-04-04 20:42:00,47.0,28.0,-100.00,WNW,294,4.0,7.0,48,-99.99,,,-99.99,17.000000,,2013-04-05 02:42:00,
2013-04-04 20:52:00,47.0,28.0,-100.00,WNW,294,4.0,7.0,48,-99.99,,,-99.99,17.000000,,2013-04-05 02:52:00,
2013-04-04 21:02:00,47.0,28.0,-100.00,WNW,294,4.0,7.0,48,-99.99,,,-99.99,17.000000,,2013-04-05 03:02:00,
2013-04-04 21:12:00,47.0,28.0,-100.00,WNW,294,4.0,7.0,48,-99.99,,,-99.99,17.000000,,2013-04-05 03:12:00,
2013-04-04 21:43:00,46.0,27.0,-100.00,WNW,285,3.0,9.0,48,-99.99,,,-99.99,0.000000,,2013-04-05 03:43:00,
2013-04-04 21:53:00,46.0,27.0,-100.00,WNW,285,3.0,9.0,48,-99.99,,,-99.99,0.000000,,2013-04-05 03:53:00,
2013-04-04 22:02:00,46.0,27.0,-100.00,WNW,285,3.0,9.0,48,-99.99,,,-99.99,0.000000,,2013-04-05 04:02:00,
2013-04-04 22:12:00,46.0,27.0,-100.00,WNW,285,3.0,9.0,48,-99.99,,,-99.99,0.000000,,2013-04-05 04:12:00,
2013-04-04 22:42:00,49.0,29.0,-100.00,West,274,6.0,16.0,46,-99.99,,,-99.99,0.000000,,2013-04-05 04:42:00,
2013-04-04 22:52:00,49.0,29.0,-100.00,West,274,6.0,16.0,46,-99.99,,,-99.99,0.000000,,2013-04-05 04:52:00,
2013-04-04 23:02:00,49.0,29.0,-100.00,West,274,6.0,16.0,46,-99.99,,,-99.99,0.000000,,2013-04-05 05:02:00,
2013-04-04 23:12:00,49.0,29.0,-100.00,West,274,6.0,16.0,46,-99.99,,,-99.99,0.000000,,2013-04-05 05:12:00,
2013-04-04 23:42:00,49.0,30.0,-100.00,SW,224,4.0,15.0,48,-99.99,,,-99.99,0.000000,,2013-04-05 05:42:00,
2013-04-04 23:52:00,49.0,30.0,-100.00,SW,224,4.0,15.0,48,-99.99,,,-99.99,0.000000,,2013-04-05 05:52:00,